Clines Corners, NM

5:49 PM MST on December 10, 2016 (GMT -0700)
Clines Corner

Weather History for KCQC - February, 2013

Change the Weather History Date:

Monday, February 18, 2013

  Actual Average (KSAF) Record (KSAF)
Temperature  
Mean Temperature 36 °F -  
Max Temperature 45 °F 0 °F 69 °F (2016)
Min Temperature 26 °F - 21 °F (2006)
Degree Days  
Heating Degree Days 30    
Moisture  
Dew Point -6 °F    
Average Humidity 22    
Maximum Humidity 49    
Minimum Humidity 5    
Precipitation  
Precipitation 0.00 in - - ()
Sea Level Pressure  
Sea Level Pressure 29.90 in    
Wind  
Wind Speed 22 mph (WNW)    
Max Wind Speed 39 mph    
Max Gust Speed 47 mph    
Visibility 10 miles    
Events      
Averages and records for this station are not official NWS values.
T = Trace of Precipitation, MM = Missing Value Source: NWS Daily Summary

Daily Weather History Graph

Daily Weather History Graph

Search for Another Location

Airport or City:

Trip Planner

Search our weather history database for the weather conditions in past years. The results will help you decide how hot, cold, wet, or windy it might be!

Date:

Astronomy

Feb. 18, 2013 Rise Set
Actual Time 6:44 AM MST 5:48 PM MST
Civil Twilight 6:19 AM MST 6:14 PM MST
Nautical Twilight 5:49 AM MST 6:43 PM MST
Astronomical Twilight 5:20 AM MST 7:13 PM MST
Moon 11:43 AM MST (2/18) 1:20 AM MST (2/18)
Length of Visible Light 11h 55m
Length of Day
11h 03m
First Quarter, 59% of the Moon is Illuminated
Feb 18
First Quarter
Feb 25
Full
Mar 4
Last Quarter
Mar 11
New
Mar 19
First Quarter

Hourly Weather History & Observations

Time (MST) Temp. Windchill Dew Point Humidity Pressure Visibility Wind Dir Wind Speed Gust Speed Precip Events Conditions
12:53 AM 35.1 °F 23.3 °F 5.0 °F 28% 29.67 in 10.0 mi West 23.0 mph - N/A   Clear
1:53 AM 34.0 °F 22.4 °F 5.0 °F 30% 29.66 in 10.0 mi West 20.7 mph 27.6 mph N/A   Clear
2:53 AM 32.0 °F 18.9 °F 6.1 °F 34% 29.68 in 10.0 mi West 24.2 mph - N/A   Clear
3:53 AM 32.0 °F 18.9 °F 7.0 °F 35% 29.68 in 10.0 mi West 24.2 mph 29.9 mph N/A   Clear
4:53 AM 28.9 °F 15.4 °F 7.0 °F 40% 29.71 in 10.0 mi West 21.9 mph - N/A   Clear
5:53 AM 28.9 °F 14.8 °F 10.9 °F 47% 29.78 in 10.0 mi WNW 24.2 mph 36.8 mph N/A   Clear
6:53 AM 28.9 °F 14.5 °F 12.0 °F 49% 29.84 in 10.0 mi WNW 25.3 mph 33.4 mph N/A   Clear
7:53 AM 30.0 °F 15.7 °F 12.0 °F 47% 29.90 in 10.0 mi NW 26.5 mph 33.4 mph N/A   Clear
8:53 AM 33.1 °F 17.5 °F 6.1 °F 32% 29.90 in 10.0 mi WNW 39.1 mph 47.2 mph N/A   Clear
9:53 AM 36.0 °F 23.0 °F 1.0 °F 23% 29.90 in 10.0 mi WNW 29.9 mph 43.7 mph N/A   Clear
10:53 AM 39.0 °F 29.0 °F -7.1 °F 14% 29.95 in 10.0 mi NW 20.7 mph 27.6 mph N/A   Clear
11:53 AM 42.1 °F 33.6 °F -5.1 °F 14% 29.93 in 10.0 mi NW 18.4 mph 26.5 mph N/A   Clear
12:53 PM 42.1 °F 31.9 °F -9.0 °F 11% 29.91 in 10.0 mi NW 26.5 mph 34.5 mph N/A   Clear
1:53 PM 44.1 °F 34.6 °F -13.0 °F 9% 29.91 in 10.0 mi WNW 26.5 mph 32.2 mph N/A   Clear
2:53 PM 45.0 °F 35.1 °F -22.0 °F 5% 29.91 in 10.0 mi WNW 31.1 mph 38.0 mph N/A   Clear
3:53 PM 45.0 °F 37.1 °F -23.1 °F 5% 29.93 in 10.0 mi West 19.6 mph 28.8 mph N/A   Clear
4:53 PM 43.0 °F 33.8 °F -22.0 °F 6% 29.96 in 10.0 mi WNW 23.0 mph - N/A   Clear
5:53 PM 36.0 °F 25.0 °F -20.0 °F 8% 29.99 in 10.0 mi WNW 20.7 mph - N/A   Clear
6:53 PM 33.1 °F 21.2 °F -22.0 °F 9% 30.03 in 10.0 mi West 20.7 mph - N/A   Clear
7:53 PM 30.0 °F 19.5 °F -18.0 °F 12% 30.07 in 10.0 mi WNW 13.8 mph - N/A   Clear
8:53 PM 27.0 °F 18.0 °F -18.9 °F 13% 30.09 in 10.0 mi WNW 9.2 mph - N/A   Clear
9:53 PM 26.1 °F 15.6 °F -17.0 °F 15% 30.08 in 10.0 mi WNW 11.5 mph - N/A   Clear
10:53 PM 26.1 °F 21.9 °F -13.0 °F 18% 30.07 in 10.0 mi West 3.5 mph - N/A   Clear
11:53 PM 27.0 °F 21.6 °F -9.9 °F 20% 30.06 in 10.0 mi SW 4.6 mph - N/A   Clear